Regional Weather Roundup
Issued by NWS

Home | Current Version | Previous Version | Graphics & Text | Print | Product List | Glossary On
Versions: 1 2 3 4 5 6 7 8 9 10 11 12 13 14 15 16 17 18 19 20 21 22 23 24 25 26 27 28 29 30 31 32 33 34 35 36 37 38 39 40 41 42 43 44 45 46 47 48 49 50
344
ASUS43 KDMX 231506
RWRIA

WEATHER ROUNDUP FOR IOWA
NATIONAL WEATHER SERVICE DES MOINES IA
1000 AM CDT MON OCT 23 2017

NOTE: "FAIR" INDICATES FEW OR NO CLOUDS BELOW 12,000 FEET WITH NO
SIGNIFICANT WEATHER AND/OR OBSTRUCTIONS TO VISIBILITY.

* - THESE STATIONS ARE NOT NWS STATIONS...THUS NOT UNDER NWS
QUALITY CONTROL.  THEY ALSO DO NOT REPORT WEATHER SUCH
AS PRECIPITATION OR FOG.

IAZ001>003-012>014-020>022-031>034-043>046-231600-
   NORTHWEST IOWA

CITY           SKY/WX    TMP DP  RH WIND       PRES   REMARKS
CHEROKEE *     CLOUDY    54  38  55 NW17G24   29.93R
DENISON *      CLOUDY    55  41  58 NW17G28   29.94R
LE MARS *      CLOUDY    55  39  54 NW15G23   29.96S
ORANGE CITY *  PTSUNNY   54  41  62 NW13G23   29.95R
SHELDON *      MOSUNNY   54  37  54 NW15G25   29.92R
SIOUX CITY     CLOUDY    55  40  56 NW28G37   29.95R
SPENCER        MOSUNNY   55  41  59 NW18G24   29.91R
STORM LAKE *   CLOUDY    55  39  54 NW17G29   29.90F
$$

IAZ055>058-069>071-079>083-090>094-231600-
   SOUTHWEST IOWA

CITY           SKY/WX    TMP DP  RH WIND       PRES   REMARKS
ATLANTIC *     MOSUNNY   59  41  51 NW20G29   29.90S
AUDUBON *      MOSUNNY   59  41  51 NW16G24   29.90S
CLARINDA *     SUNNY     59  41  51 N17G25    29.95R
COUNCIL BLFS * CLOUDY    59  41  51 NW16G23   29.95S
CRESTON *      SUNNY     55  41  58 NW15G22   29.92R
HARLAN  *      MOSUNNY   59  41  51 NW16G29   29.96R
LAMONI         SUNNY     54  42  64 W14       29.90R
RED OAK *      CLOUDY    59  41  51 NW15G21   29.94R
SHENANDOAH *   SUNNY     61  41  48 NW13G18   29.96R
$$

IAZ047>049-059>061-072>074-084-231600-
   CENTRAL IOWA

CITY           SKY/WX    TMP DP  RH WIND       PRES   REMARKS
AMES           MOSUNNY   55  42  61 NW13      29.87R
ANKENY *       SUNNY     54  41  62 NW13G18   29.88S
BOONE *          N/A     55  41  58 NW15G24   29.87S
CHARITON *     MOSUNNY   54  41  62 W12G17    29.87S
DES MOINES     MOSUNNY   55  41  59 NW14G20   29.88R
GRINNELL*      CLOUDY    48  41  76 SW9       29.88F
KNOXVILLE *    PTSUNNY   52  41  66 VRB6      29.87S
MARSHALLTOWN   CLOUDY    50  41  71 SW3       29.85R
NEWTON *       PTSUNNY   48  43  81 SW5       29.87S
PELLA *        CLOUDY    48  42  79 SW5       29.89S
PERRY *          N/A     60  37  43 NW12G20   29.88F
$$

IAZ004>006-015-016-023>025-035-036-231600-
   NORTH CENTRAL IOWA

CITY           SKY/WX    TMP DP  RH WIND       PRES   REMARKS
ALGONA *       DRIZZLE   55  43  62 NW13G24   29.85F
CLARION *      PTSUNNY   54  43  66 NW18G25   29.86S
ESTHERVILLE    CLOUDY    52  42  69 NW12G20   29.88R
FORT DODGE *   MOSUNNY   57  41  55 NW10G18   29.87R
MASON CITY     CLOUDY    53  40  61 NW13G22   29.85F
FOREST CITY *  PTSUNNY   54  41  62 NW14      29.84S
WEBSTER CITY * SUNNY     57  39  51 NW13G24   29.84S
IOWA FALLS *   CLOUDY    50  42  74 W14       29.87R
$$

IAZ007>011-017>019-026>030-037>042-050>054-066-231600-
   NORTHEAST IOWA

CITY           SKY/WX    TMP DP  RH WIND       PRES   REMARKS
CEDAR RAPIDS   CLOUDY    48  45  89 SW8       29.85F
CHARLES CITY * PTSUNNY   48  39  71 W9        29.83S
CLINTON *      CLOUDY    47  46  97 CALM      29.88F
DECORAH *      CLOUDY    50  41  71 VRB7      29.81F
DUBUQUE        CLOUDY    48  44  86 SW7       29.86F
MONTICELLO *   CLOUDY    50  46  87 SE5       29.86F
OELWEIN *      CLOUDY    48  45  87 S9        29.84F
WATERLOO       CLOUDY    46  41  82 S7        29.84F
$$

IAZ064-065-067-068-078-231600-
   EAST CENTRAL IOWA

CITY           SKY/WX    TMP DP  RH WIND       PRES   REMARKS
DAVENPORT      CLOUDY    49  46  90 CALM      29.89F
IOWA CITY      CLOUDY    49  46  90 SE3       29.88F
MUSCATINE *    CLOUDY    48  45  87 CALM      29.87F
QUAD CITIES    CLOUDY    49  47  93 CALM      29.87F
$$

IAZ062-063-075>077-085>089-095>099-231600-
   SOUTHEAST IOWA

CITY           SKY/WX    TMP DP  RH WIND       PRES   REMARKS
BURLINGTON     CLOUDY    51  47  86 W5        29.86F
FAIRFIELD *    CLOUDY    50  43  76 S8        29.86F
FORT MADISON * CLOUDY    50  46  87 W3        29.87F
KEOKUK *       CLOUDY    50  46  87 SW5       29.86F
OSKALOOSA *      N/A     47  43  84 SW12      29.86F
OTTUMWA        CLOUDY    49  44  83 S7        29.86F
WASHINGTON *   CLOUDY    48  46  93 S5        29.87F
$$

ABBREVIATIONS USED IN REMARKS
   TC - TEMPERATURES IN CELSIUS
  WCI - WIND CHILL INDEX
   HX - HEAT INDEX
  VSB - VISIBILITY
$$





USA.gov is the U.S. government's official web portal to all federal, state and local government web resources and services.